User: anonymous   Login
Location: Unspecified
(0.0000°N, 0.0000°E)
Time: 12:57:23
(UTC+00:00)
Language:

WGS F4 (USA 233) - Orbit

View from above orbital plane
View from above orbital plane
View from above satellite
View from above satellite

Ground track
Ground track

The orbit is defined by the following mean orbital elements,

1 38070U          26146.10023388 +.00000000 +00000-0 +00000-0 0 00005
2 38070   0.0167 310.2542 0000937 346.2893  71.6323  1.00267425    04
Epoch (UTC): 26 May 2026 02:24:20
Eccentricity: 0.0000937
inclination: 0.0167°
perigee height: 35784 km
apogee height: 35792 km
right ascension of ascending node: 310.2542°
argument of perigee: 346.2893°
revolutions per day: 1.00267425
mean anomaly at epoch: 71.6323°

The dashed part of the orbit path shows where the satellite is in the earth's shadow,  

DLR